Location: *
(50.6089°N, 2.2719°E)
Time: 03:04:53
(UTC+00:00)

Cosmos 1844 Rocket - Pass Details

Date: 18 October 2019
Orbit: 825 x 843 km, 71.0° (Epoch: 11 November)

Event Time Altitude Azimuth Distance (km) Brightness Sun altitude
Rises 18:58:40 0° 243° (WSW) 3,392 6.7 -20.5°
Reaches altitude 10° 19:01:23 10° 253° (WSW) 2,459 6.0 -21.0°
Maximum altitude 19:06:21 31° 315° (NW) 1,440 4.4 -21.8°
Drops below altitude 10° 19:11:20 10° 17° (NNE) 2,460 5.1 -22.5°
Sets 19:14:04 0° 28° (NNE) 3,394 5.7 -22.9°
